KLM49Q GCRR-GCXO

Flight info

Callsign KLM49Q
Flight time N/A
Altitude 25000
Route LARYS
Aircraft B738/M-SDE2E3FGHIRWXY/LB1

Departure

Time N/A
Airport César Manrique-Lanzarote Airport (GCRR)

Arrival

Time 2026-05-03 21:25
Airport Tenerife Norte-Ciudad de La Laguna Airport (GCXO)
Time Latitude Longitude Altitude Speed Heading
2026-05-03 21:05 28.90509 -14.68817 24124 ft 381 kts 255°
2026-05-03 21:05 28.89844 -14.71757 24126 ft 381 kts 255°
2026-05-03 21:05 28.89178 -14.74691 24123 ft 381 kts 255°
2026-05-03 21:06 28.88514 -14.77619 24126 ft 381 kts 255°
2026-05-03 21:06 28.87856 -14.80514 24125 ft 381 kts 255°
2026-05-03 21:06 28.87189 -14.83444 24125 ft 381 kts 255°
2026-05-03 21:06 28.86521 -14.86374 24125 ft 381 kts 255°
2026-05-03 21:07 28.85852 -14.89306 24128 ft 381 kts 255°
2026-05-03 21:07 28.85182 -14.92238 24126 ft 381 kts 255°
2026-05-03 21:07 28.84512 -14.95172 24124 ft 381 kts 255°
2026-05-03 21:07 28.83852 -14.98056 24124 ft 381 kts 255°
2026-05-03 21:08 28.83182 -15.00983 24126 ft 381 kts 255°
2026-05-03 21:08 28.82508 -15.03921 24124 ft 381 kts 255°
2026-05-03 21:08 28.81834 -15.06859 24125 ft 381 kts 255°
2026-05-03 21:08 28.81169 -15.09756 24123 ft 381 kts 255°
2026-05-03 21:09 28.80496 -15.12681 24128 ft 381 kts 255°
2026-05-03 21:09 28.79820 -15.15617 24124 ft 381 kts 255°
2026-05-03 21:09 28.79146 -15.18545 24121 ft 377 kts 255°
2026-05-03 21:09 28.78491 -15.21385 24092 ft 364 kts 255°
2026-05-03 21:10 28.77851 -15.24157 23802 ft 357 kts 255°
2026-05-03 21:10 28.77229 -15.26850 23369 ft 355 kts 255°
2026-05-03 21:10 28.76604 -15.29553 22952 ft 350 kts 255°
2026-05-03 21:10 28.75983 -15.32232 22494 ft 347 kts 255°
2026-05-03 21:11 28.75370 -15.34877 22059 ft 344 kts 255°
2026-05-03 21:11 28.74760 -15.37504 21650 ft 341 kts 255°
2026-05-03 21:11 28.74156 -15.40107 21228 ft 338 kts 255°
2026-05-03 21:11 28.73555 -15.42694 20809 ft 336 kts 255°
2026-05-03 21:12 28.72958 -15.45259 20391 ft 333 kts 255°
2026-05-03 21:12 28.72372 -15.47776 19982 ft 332 kts 255°
2026-05-03 21:12 28.71780 -15.50316 19583 ft 330 kts 255°
2026-05-03 21:12 28.71192 -15.52834 19183 ft 328 kts 255°
2026-05-03 21:13 28.70606 -15.55345 18768 ft 327 kts 255°
2026-05-03 21:13 28.70021 -15.57847 18354 ft 326 kts 255°
2026-05-03 21:13 28.69437 -15.60342 17890 ft 325 kts 255°
2026-05-03 21:13 28.68863 -15.62793 17469 ft 323 kts 255°
2026-05-03 21:14 28.68286 -15.65257 17052 ft 320 kts 255°
2026-05-03 21:14 28.67711 -15.67708 16643 ft 318 kts 255°
2026-05-03 21:14 28.67139 -15.70145 16257 ft 316 kts 255°
2026-05-03 21:14 28.66572 -15.72558 15857 ft 314 kts 255°
2026-05-03 21:15 28.66014 -15.74931 15478 ft 313 kts 255°
2026-05-03 21:15 28.65452 -15.77319 15092 ft 311 kts 256°
2026-05-03 21:15 28.64891 -15.79701 14710 ft 310 kts 256°
2026-05-03 21:15 28.64332 -15.82069 14328 ft 309 kts 256°
2026-05-03 21:16 28.63775 -15.84431 13936 ft 308 kts 256°
2026-05-03 21:16 28.63033 -15.86671 13685 ft 298 kts 241°
2026-05-03 21:16 28.61778 -15.88528 13215 ft 293 kts 229°
2026-05-03 21:16 28.60310 -15.90088 12689 ft 292 kts 224°
2026-05-03 21:17 28.58786 -15.91595 12163 ft 289 kts 224°
2026-05-03 21:17 28.57757 -15.92603 11815 ft 288 kts 223°
2026-05-03 21:17 28.55755 -15.94570 11147 ft 285 kts 223°
2026-05-03 21:17 28.54264 -15.96043 10653 ft 283 kts 223°
2026-05-03 21:18 28.52784 -15.97511 10158 ft 281 kts 223°
2026-05-03 21:18 28.51313 -15.98974 9623 ft 280 kts 223°
2026-05-03 21:18 28.49842 -16.00439 9055 ft 280 kts 223°
2026-05-03 21:18 28.48397 -16.01879 8513 ft 279 kts 223°
2026-05-03 21:19 28.46934 -16.03337 7974 ft 279 kts 223°
2026-05-03 21:19 28.45479 -16.04787 7446 ft 278 kts 223°
2026-05-03 21:19 28.44040 -16.06219 6907 ft 269 kts 223°
2026-05-03 21:19 28.42653 -16.07598 6380 ft 261 kts 224°
2026-05-03 21:20 28.41311 -16.08966 5837 ft 257 kts 229°
2026-05-03 21:20 28.40528 -16.10741 5287 ft 254 kts 268°
2026-05-03 21:20 28.40893 -16.12650 5182 ft 248 kts 296°
2026-05-03 21:20 28.41572 -16.14341 5034 ft 227 kts 297°
2026-05-03 21:21 28.42190 -16.15898 4979 ft 204 kts 295°
2026-05-03 21:21 28.42695 -16.17337 4800 ft 188 kts 293°
2026-05-03 21:21 28.43146 -16.18689 4572 ft 178 kts 293°
2026-05-03 21:21 28.43577 -16.19993 4347 ft 173 kts 294°
2026-05-03 21:22 28.43984 -16.21226 4149 ft 162 kts 293°
2026-05-03 21:22 28.44366 -16.22384 3912 ft 151 kts 294°
2026-05-03 21:22 28.44732 -16.23486 3721 ft 149 kts 294°
2026-05-03 21:22 28.45101 -16.24601 3533 ft 152 kts 295°
2026-05-03 21:23 28.45473 -16.25723 3329 ft 150 kts 295°
2026-05-03 21:23 28.45840 -16.26834 3127 ft 149 kts 295°
2026-05-03 21:23 28.46197 -16.27912 2948 ft 149 kts 294°
2026-05-03 21:23 28.46549 -16.29010 2755 ft 139 kts 291°
2026-05-03 21:24 28.46873 -16.30023 2500 ft 138 kts 294°
2026-05-03 21:24 28.47219 -16.31012 2398 ft 133 kts 292°
2026-05-03 21:24 28.47552 -16.31994 2201 ft 133 kts 290°
2026-05-03 21:24 28.47865 -16.32938 2042 ft 123 kts 290°
2026-05-03 21:25 28.48127 -16.33736 2042 ft 84 kts 290°
2026-05-03 21:25 28.48279 -16.34194 2054 ft 45 kts 290°
2026-05-03 21:25 28.48382 -16.34512 2066 ft 39 kts 290°
2026-05-03 21:25 28.48470 -16.34776 2076 ft 32 kts 291°
2026-05-03 21:26 28.48544 -16.34998 2088 ft 29 kts 291°
2026-05-03 21:26 28.48626 -16.35193 2084 ft 24 kts 303°
2026-05-03 21:26 28.48697 -16.35305 2081 ft 14 kts 311°
2026-05-03 21:26 28.48753 -16.35299 2077 ft 10 kts 72°
2026-05-03 21:27 28.48738 -16.35228 2078 ft 9 kts 110°
2026-05-03 21:27 28.48716 -16.35159 2080 ft 9 kts 110°
2026-05-03 21:27 28.48695 -16.35093 2081 ft 9 kts 110°
2026-05-03 21:27 28.48673 -16.35027 2082 ft 9 kts 110°
2026-05-03 21:28 28.48650 -16.34958 2083 ft 10 kts 110°
2026-05-03 21:28 28.48640 -16.34883 2080 ft 11 kts 63°
2026-05-03 21:28 28.48689 -16.34820 2075 ft 7 kts 48°
2026-05-03 21:28 28.48712 -16.34790 2074 ft 1 kts 49°
2026-05-03 21:29 28.48713 -16.34787 2074 ft 0 kts 50°